Weather History for KRDM - July, 2013

Change the Weather History Date:

Monday, July 1, 2013

  Actual Average Record
Temperature  
Mean Temperature 82 °F 63 °F  
Max Temperature 99 °F 82 °F 99 °F (2013)
Min Temperature 65 °F 44 °F 31 °F (1973)
Degree Days  
Heating Degree Days 0 4  
Month to date heating degree days 0 4  
Since 1 June heating degree days 185 221  
Since 1 July heating degree days 0 4  
Cooling Degree Days 17 2  
Month to date cooling degree days 17 2  
Year to date cooling degree days 65 31  
Since 1 June cooling degree days 56 26  
Growing Degree Days 32 (Base 50)    
Moisture  
Dew Point 54 °F    
Average Humidity 42    
Maximum Humidity 63    
Minimum Humidity 21    
Precipitation  
Precipitation 0.00 in 0.02 in 0.62 in (1998)
Month to date precipitation 0.00 0.02  
Year to date precipitation 1.92 4.70  
Sea Level Pressure  
Sea Level Pressure 29.92 in    
Wind  
Wind Speed 7 mph (NW)    
Max Wind Speed 18 mph    
Max Gust Speed 23 mph    
Visibility 10 miles    
Events      
T = Trace of Precipitation, MM = Missing Value Source: NWS Daily Summary

Daily Weather History Graph

Daily Weather History Graph

Search for Another Location

Airport or City:

Trip Planner

Search our weather history database for the weather conditions in past years. The results will help you decide how hot, cold, wet, or windy it might be!

Date:

Astronomy

Jul. 01, 2013 Rise Set
Actual Time 5:24 AM PDT 8:52 PM PDT
Civil Twilight 4:48 AM PDT 9:28 PM PDT
Nautical Twilight 4:00 AM PDT 10:15 PM PDT
Astronomical Twilight 2:59 AM PDT 11:16 PM PDT
Moon 1:06 AM PDT (7/1) 3:05 PM PDT (7/1)
Length of Visible Light 16h 39m
Length of Day
15h 27m
Waning Crescent, 34% of the Moon is Illuminated
Jul 1
Waning Crescent
Jul 8
New
Jul 15
First Quarter
Jul 22
Full
Jul 29
Last Quarter

Hourly Weather History & Observations

Time (PDT) Temp. Heat Index Dew Point Humidity Pressure Visibility Wind Dir Wind Speed Gust Speed Precip Events Conditions
12:56 AM 75.9 °F - 54.0 °F 46% 29.88 in 10.0 mi NW 6.9 mph - N/A   Clear
1:56 AM 73.9 °F - 53.1 °F 48% 29.88 in 10.0 mi NW 8.1 mph - N/A   Clear
2:56 AM 75.0 °F - 52.0 °F 44% 29.88 in 10.0 mi WNW 9.2 mph - N/A   Clear
3:56 AM 71.1 °F - 52.0 °F 51% 29.89 in 10.0 mi West 3.5 mph - N/A   Clear
4:56 AM 72.0 °F - 53.1 °F 51% 29.91 in 10.0 mi NNW 4.6 mph - N/A   Clear
5:56 AM 66.9 °F - 53.1 °F 61% 29.91 in 10.0 mi Calm Calm - N/A   Clear
6:56 AM 73.0 °F - 54.0 °F 51% 29.92 in 10.0 mi Calm Calm - N/A   Clear
7:56 AM 75.9 °F - 53.1 °F 45% 29.92 in 10.0 mi WNW 4.6 mph - N/A   Clear
8:56 AM 78.1 °F - 54.0 °F 43% 29.93 in 10.0 mi WNW 8.1 mph - N/A   Clear
9:56 AM 81.0 °F 80.5 °F 54.0 °F 39% 29.93 in 10.0 mi Calm Calm - N/A   Clear
10:56 AM 84.9 °F 83.6 °F 55.0 °F 36% 29.93 in 10.0 mi Variable 6.9 mph - N/A   Clear
11:56 AM 87.1 °F 85.1 °F 54.0 °F 32% 29.92 in 10.0 mi WSW 3.5 mph - N/A   Clear
12:56 PM 93.0 °F 90.6 °F 53.1 °F 26% 29.91 in 10.0 mi WNW 6.9 mph - N/A   Clear
1:56 PM 93.9 °F - 51.1 °F 23% 29.91 in 10.0 mi WSW 6.9 mph - N/A   Clear
2:56 PM 97.0 °F - 52.0 °F 22% 29.91 in 10.0 mi NW 11.5 mph - N/A   Clear
3:56 PM 98.1 °F - 51.1 °F 20% 29.89 in 10.0 mi North 11.5 mph 18.4 mph N/A   Clear
4:56 PM 98.1 °F - 51.1 °F 20% 29.89 in 10.0 mi NNW 10.4 mph 20.7 mph N/A   Clear
5:56 PM 98.1 °F - 51.1 °F 20% 29.88 in 10.0 mi NNE 12.7 mph - N/A   Clear
6:56 PM 93.9 °F 92.9 °F 57.9 °F 30% 29.89 in 10.0 mi WNW 12.7 mph - N/A   Clear
7:07 PM 93.2 °F 91.9 °F 57.2 °F 30% 30.01 in 10.0 mi NW 16.1 mph 19.6 mph N/A   Clear
7:56 PM 91.0 °F 89.2 °F 55.9 °F 30% 29.91 in 10.0 mi NW 15.0 mph - N/A   Clear
8:56 PM 86.0 °F 85.0 °F 57.9 °F 38% 29.94 in 10.0 mi NW 12.7 mph - N/A   Clear
9:56 PM 82.0 °F 82.7 °F 61.0 °F 49% 29.97 in 10.0 mi NW 8.1 mph - N/A   Clear
10:56 PM 75.9 °F - 59.0 °F 56% 29.99 in 10.0 mi Calm Calm - N/A   Clear
11:56 PM 77.0 °F - 61.0 °F 58% 29.99 in 10.0 mi WSW 5.8 mph - N/A   Clear